Погода в Петровке

Украина / Херсонская область     46°29′16″N   34°40′19″E
темп.,
°C
ветер,
м/с
пор.,
м/с
влажн.,
%
обл.,
%
осадки,
мм/ч
давл.,
гПа
погр.,
м
9 мая, вс
вс900:00+11ссз81271100 0.2 1014918
03:00+8ссз71372100 0.2 1016841
06:00+7сз51180100 0.0 1018662
09:00+11ссз810585 0.0 10201388
12:00+14ссз8103911 0.0 10212186
15:00+15ссз9103295 0.0 10222832
18:00+14ссз793964 0.0 10232531
21:00+10сз475215 0.0 1025103
10 мая, пн
пн1000:00+8сз48605 0.0 1026140
03:00+6ссз36715 0.0 102691
06:00+6ссз36750 0.0 1027115
09:00+12с57451 0.0 10271645
12:00+15ссз67345 0.0 10262310
15:00+17ссз673281 0.0 10242689
18:00+15ссз67375 0.0 10222351
21:00+10сз475235 0.0 1022100
11 мая, вт
вт1100:00+10сз4115853 0.0 1020251
03:00+9зсз7146572 0.0 1017404
06:00+9сз71367100 0.1 1016774
09:00+11ссз797594 0.1 1015708
12:00+12ссз5876100 0.0 1014941
15:00+13ссз4778100 0.0 1014771
18:00+12ссв357064 0.3 1014588
21:00+9с11735 0.3 101413
12 мая, ср
ср1200:00+6ссз11825 0.0 101410
03:00+6сз11835 0.0 101310
06:00+6вюв11815 0.0 101310
09:00+13ююв345517 0.0 1013948
12:00+16ю676298 0.1 10131349
15:00+12ююв3583100 0.5 1014419
18:00+14ююв477999 0.0 1014373
21:00+13вюв3579100 0.0 1014136
13 мая, чт
чт1300:00+11вюв45873 0.0 101472
03:00+10в448778 0.0 101355
06:00+11всв489677 0.0 1012150
09:00+18в7973100 0.0 1012559
12:00+21вюв8957100 0.0 1011644
15:00+21вюв6851100 0.0 1010566
18:00+21вюв69590 0.0 1010410
21:00+15вюв458434 0.0 101064